User: anonymous   Login
Location: Newark
(11.5710°N, 104.9241°E)
Time: 02:28:03
(UTC+00:00)
Language:

LilacSat-2 - Orbit

View from above orbital plane
View from above orbital plane
View from above satellite
View from above satellite

Ground track
Ground track

The orbit data is extracted from the following two-line orbital elements,

1 40908U 15049K   20092.79218722  .00000170  00000-0  12986-4 0  9999
2 40908  97.4903  93.4315 0014335 289.7366 245.2595 15.13989174250396
Epoch (UTC): 01 April 2020 19:00:44
Eccentricity: 0.0014335
inclination: 97.4903°
perigee height: 514 km
apogee height: 534 km
right ascension of ascending node: 93.4315°
argument of perigee: 289.7366°
revolutions per day: 15.13989174
mean anomaly at epoch: 245.2595°
orbit number at epoch: 25039

The dashed part of the orbit path shows where the satellite is in the earth's shadow,  

DLR